Time,TemperatureF,DewpointF,PressureIn,WindDirection,WindDirectionDegrees,WindSpeedMPH,WindSpeedGustMPH,Humidity,HourlyPrecipIn,Conditions,Clouds,dailyrainin,SoftwareType,DateUTC
2013-09-14 00:02:00,76.8,63.2,29.86,SSE,150,5.0,5.0,63,0.00,,,0.00,Wunderground v.1.15,2013-09-14 05:02:00,
2013-09-14 00:10:00,76.3,63.2,29.86,SSE,162,4.0,4.0,64,0.00,,,0.00,Wunderground v.1.15,2013-09-14 05:10:00,
2013-09-14 00:16:00,76.0,63.4,29.85,SSW,204,4.0,4.0,65,0.00,,,0.00,Wunderground v.1.15,2013-09-14 05:16:00,
2013-09-14 00:22:00,75.7,64.0,29.85,South,169,3.0,3.0,67,0.00,,,0.00,Wunderground v.1.15,2013-09-14 05:22:00,
2013-09-14 00:28:00,75.4,64.1,29.85,South,176,3.0,4.0,68,0.00,,,0.00,Wunderground v.1.15,2013-09-14 05:28:00,
2013-09-14 00:34:00,75.3,64.4,29.85,SSE,165,3.0,3.0,69,0.00,,,0.00,Wunderground v.1.15,2013-09-14 05:34:00,
2013-09-14 00:40:00,75.1,64.2,29.85,SE,141,3.0,3.0,69,0.00,,,0.00,Wunderground v.1.15,2013-09-14 05:40:00,
2013-09-14 00:46:00,75.1,64.6,29.85,SSE,167,3.0,3.0,70,0.00,,,0.00,Wunderground v.1.15,2013-09-14 05:46:00,
2013-09-14 00:52:00,74.9,64.5,29.85,SSE,166,3.0,3.0,70,0.00,,,0.00,Wunderground v.1.15,2013-09-14 05:52:00,
2013-09-14 00:58:00,74.7,64.3,29.85,SSE,156,3.0,4.0,70,0.00,,,0.00,Wunderground v.1.15,2013-09-14 05:58:00,
2013-09-14 01:04:00,74.3,64.3,29.85,SSE,154,4.0,6.0,71,0.00,,,0.00,Wunderground v.1.15,2013-09-14 06:04:00,
2013-09-14 01:10:00,74.0,64.4,29.85,South,179,4.0,4.0,72,0.00,,,0.00,Wunderground v.1.15,2013-09-14 06:10:00,
2013-09-14 01:16:00,73.8,64.6,29.85,South,184,4.0,6.0,73,0.00,,,0.00,Wunderground v.1.15,2013-09-14 06:16:00,
2013-09-14 01:22:00,73.6,64.4,29.85,SSW,192,4.0,4.0,73,0.00,,,0.00,Wunderground v.1.15,2013-09-14 06:22:00,
2013-09-14 01:28:00,73.5,64.7,29.85,SSE,165,4.0,4.0,74,0.00,,,0.00,Wunderground v.1.15,2013-09-14 06:28:00,
2013-09-14 01:34:00,73.5,64.7,29.85,South,179,4.0,5.0,74,0.00,,,0.00,Wunderground v.1.15,2013-09-14 06:34:00,
2013-09-14 01:40:00,73.3,64.9,29.85,South,169,4.0,4.0,75,0.00,,,0.00,Wunderground v.1.15,2013-09-14 06:40:00,
2013-09-14 01:46:00,73.0,64.6,29.84,South,170,4.0,4.0,75,0.00,,,0.00,Wunderground v.1.15,2013-09-14 06:46:00,
2013-09-14 01:52:00,72.7,64.7,29.84,SSE,167,4.0,5.0,76,0.00,,,0.00,Wunderground v.1.15,2013-09-14 06:52:00,
2013-09-14 01:58:00,72.5,64.5,29.84,SSE,150,4.0,5.0,76,0.00,,,0.00,Wunderground v.1.15,2013-09-14 06:58:00,
2013-09-14 02:04:00,72.5,64.5,29.84,SSE,166,3.0,3.0,76,0.00,,,0.00,Wunderground v.1.15,2013-09-14 07:04:00,
2013-09-14 02:10:00,72.5,64.5,29.85,South,186,3.0,3.0,76,0.00,,,0.00,Wunderground v.1.15,2013-09-14 07:10:00,
2013-09-14 02:16:00,72.6,64.6,29.85,SE,143,2.0,3.0,76,0.00,,,0.00,Wunderground v.1.15,2013-09-14 07:16:00,
2013-09-14 02:22:00,72.5,64.9,29.84,SSE,148,2.0,3.0,77,0.00,,,0.00,Wunderground v.1.15,2013-09-14 07:22:00,
2013-09-14 02:28:00,72.3,64.7,29.84,SE,136,2.0,3.0,77,0.00,,,0.00,Wunderground v.1.15,2013-09-14 07:28:00,
2013-09-14 02:34:00,72.2,65.0,29.84,SSE,167,2.0,3.0,78,0.00,,,0.00,Wunderground v.1.15,2013-09-14 07:34:00,
2013-09-14 02:40:00,72.2,64.6,29.84,SE,136,3.0,3.0,77,0.00,,,0.00,Wunderground v.1.15,2013-09-14 07:40:00,
2013-09-14 02:46:00,72.1,64.5,29.84,SSE,155,3.0,4.0,77,0.00,,,0.00,Wunderground v.1.15,2013-09-14 07:46:00,
2013-09-14 02:52:00,72.2,64.2,29.84,South,188,4.0,4.0,76,0.00,,,0.00,Wunderground v.1.15,2013-09-14 07:52:00,
2013-09-14 02:58:00,72.3,63.9,29.84,SSE,151,4.0,5.0,75,0.00,,,0.00,Wunderground v.1.15,2013-09-14 07:58:00,
2013-09-14 03:04:00,72.2,63.8,29.84,SSE,153,3.0,4.0,75,0.00,,,0.00,Wunderground v.1.15,2013-09-14 08:04:00,
2013-09-14 03:10:00,72.1,63.7,29.84,SSE,162,3.0,3.0,75,0.00,,,0.00,Wunderground v.1.15,2013-09-14 08:10:00,
2013-09-14 03:16:00,71.9,63.5,29.84,SSE,167,2.0,3.0,75,0.00,,,0.00,Wunderground v.1.15,2013-09-14 08:16:00,
2013-09-14 03:22:00,71.9,63.5,29.84,SSW,195,2.0,3.0,75,0.00,,,0.00,Wunderground v.1.15,2013-09-14 08:22:00,
2013-09-14 03:28:00,71.8,63.4,29.84,SSE,154,2.0,3.0,75,0.00,,,0.00,Wunderground v.1.15,2013-09-14 08:28:00,
2013-09-14 03:34:00,71.7,63.7,29.84,South,188,1.0,2.0,76,0.00,,,0.00,Wunderground v.1.15,2013-09-14 08:34:00,
2013-09-14 03:40:00,71.8,64.2,29.84,SSW,200,1.0,3.0,77,0.00,,,0.00,Wunderground v.1.15,2013-09-14 08:40:00,
2013-09-14 03:46:00,72.1,64.5,29.84,SSW,210,2.0,3.0,77,0.00,,,0.00,Wunderground v.1.15,2013-09-14 08:46:00,
2013-09-14 03:52:00,72.2,64.6,29.84,SW,222,1.0,2.0,77,0.00,,,0.00,Wunderground v.1.15,2013-09-14 08:52:00,
2013-09-14 03:58:00,71.8,64.2,29.84,WSW,248,1.0,2.0,77,0.00,,,0.00,Wunderground v.1.15,2013-09-14 08:58:00,
2013-09-14 04:04:00,71.4,64.2,29.83,WSW,248,0.0,1.0,78,0.00,,,0.00,Wunderground v.1.15,2013-09-14 09:04:00,
2013-09-14 04:10:00,71.3,64.1,29.83,WSW,248,0.0,1.0,78,0.00,,,0.00,Wunderground v.1.15,2013-09-14 09:10:00,
2013-09-14 04:16:00,71.2,64.4,29.83,WSW,248,0.0,1.0,79,0.00,,,0.00,Wunderground v.1.15,2013-09-14 09:16:00,
2013-09-14 04:22:00,71.2,64.4,29.83,WSW,250,0.0,1.0,79,0.00,,,0.00,Wunderground v.1.15,2013-09-14 09:22:00,
2013-09-14 04:28:00,71.1,64.3,29.83,West,271,0.0,1.0,79,0.00,,,0.00,Wunderground v.1.15,2013-09-14 09:28:00,
2013-09-14 04:34:00,71.3,64.1,29.83,WNW,282,0.0,2.0,78,0.00,,,0.00,Wunderground v.1.15,2013-09-14 09:34:00,
2013-09-14 04:40:00,71.5,64.3,29.83,West,275,1.0,1.0,78,0.00,,,0.00,Wunderground v.1.15,2013-09-14 09:40:00,
2013-09-14 04:46:00,71.4,64.2,29.83,WNW,286,0.0,1.0,78,0.00,,,0.00,Wunderground v.1.15,2013-09-14 09:46:00,
2013-09-14 04:52:00,71.2,64.4,29.83,WSW,254,1.0,2.0,79,0.00,,,0.00,Wunderground v.1.15,2013-09-14 09:52:00,
2013-09-14 04:58:00,71.3,64.4,29.83,WSW,248,1.0,2.0,79,0.00,,,0.00,Wunderground v.1.15,2013-09-14 09:58:00,
2013-09-14 05:04:00,71.4,64.5,29.83,SW,232,1.0,2.0,79,0.00,,,0.00,Wunderground v.1.15,2013-09-14 10:04:00,
2013-09-14 05:10:00,71.6,64.7,29.83,WSW,252,1.0,2.0,79,0.00,,,0.00,Wunderground v.1.15,2013-09-14 10:10:00,
2013-09-14 05:16:00,71.6,64.7,29.83,SW,225,1.0,2.0,79,0.00,,,0.00,Wunderground v.1.15,2013-09-14 10:16:00,
2013-09-14 05:22:00,71.7,64.8,29.83,WSW,238,0.0,1.0,79,0.00,,,0.00,Wunderground v.1.15,2013-09-14 10:22:00,
2013-09-14 05:28:00,71.5,64.6,29.83,West,275,0.0,1.0,79,0.00,,,0.00,Wunderground v.1.15,2013-09-14 10:28:00,
2013-09-14 05:34:00,71.5,64.6,29.84,WSW,255,0.0,1.0,79,0.00,,,0.00,Wunderground v.1.15,2013-09-14 10:34:00,
2013-09-14 05:40:00,71.6,64.7,29.84,SW,229,1.0,1.0,79,0.00,,,0.00,Wunderground v.1.15,2013-09-14 10:40:00,
2013-09-14 05:46:00,71.7,64.8,29.84,SW,228,1.0,1.0,79,0.00,,,0.00,Wunderground v.1.15,2013-09-14 10:46:00,
2013-09-14 05:52:00,71.5,64.6,29.84,SW,229,0.0,1.0,79,0.00,,,0.00,Wunderground v.1.15,2013-09-14 10:52:00,
2013-09-14 05:58:00,71.5,64.6,29.84,SW,231,1.0,2.0,79,0.00,,,0.00,Wunderground v.1.15,2013-09-14 10:58:00,
2013-09-14 06:04:00,71.6,64.7,29.84,WSW,255,1.0,2.0,79,0.00,,,0.00,Wunderground v.1.15,2013-09-14 11:04:00,
2013-09-14 06:10:00,71.6,64.7,29.84,WNW,285,1.0,1.0,79,0.00,,,0.00,Wunderground v.1.15,2013-09-14 11:10:00,
2013-09-14 06:16:00,71.5,65.0,29.84,WNW,290,1.0,3.0,80,0.00,,,0.00,Wunderground v.1.15,2013-09-14 11:16:00,
2013-09-14 06:22:00,71.3,64.8,29.84,NNW,341,2.0,2.0,80,0.00,,,0.00,Wunderground v.1.15,2013-09-14 11:22:00,
2013-09-14 06:28:00,71.0,64.9,29.84,NW,312,1.0,2.0,81,0.00,,,0.00,Wunderground v.1.15,2013-09-14 11:28:00,
2013-09-14 06:34:00,71.0,64.9,29.85,West,273,1.0,1.0,81,0.00,,,0.00,Wunderground v.1.15,2013-09-14 11:34:00,
2013-09-14 06:40:00,71.1,65.0,29.85,WNW,301,0.0,0.0,81,0.00,,,0.00,Wunderground v.1.15,2013-09-14 11:40:00,
2013-09-14 06:46:00,71.0,64.9,29.85,WNW,301,0.0,1.0,81,0.00,,,0.00,Wunderground v.1.15,2013-09-14 11:46:00,
2013-09-14 06:52:00,70.9,65.1,29.85,WNW,301,0.0,0.0,82,0.00,,,0.00,Wunderground v.1.15,2013-09-14 11:52:00,
2013-09-14 06:58:00,70.6,64.8,29.85,North,354,1.0,2.0,82,0.00,,,0.00,Wunderground v.1.15,2013-09-14 11:58:00,
2013-09-14 07:04:00,70.5,65.1,29.85,NNW,340,1.0,2.0,83,0.00,,,0.00,Wunderground v.1.15,2013-09-14 12:04:00,
2013-09-14 07:10:00,70.7,65.3,29.85,NW,319,1.0,2.0,83,0.00,,,0.00,Wunderground v.1.15,2013-09-14 12:10:00,
2013-09-14 07:16:00,70.9,65.1,29.85,North,354,2.0,2.0,82,0.00,,,0.00,Wunderground v.1.15,2013-09-14 12:16:00,
2013-09-14 07:22:00,70.7,64.9,29.85,North,357,2.0,3.0,82,0.00,,,0.00,Wunderground v.1.15,2013-09-14 12:22:00,
2013-09-14 07:28:00,70.4,65.0,29.86,North,360,3.0,3.0,83,0.00,,,0.00,Wunderground v.1.15,2013-09-14 12:28:00,
2013-09-14 07:34:00,69.9,64.8,29.86,North,351,3.0,3.0,84,0.00,,,0.00,Wunderground v.1.15,2013-09-14 12:34:00,
2013-09-14 07:40:00,69.7,65.0,29.86,North,356,3.0,3.0,85,0.00,,,0.00,Wunderground v.1.15,2013-09-14 12:40:00,
2013-09-14 07:46:00,69.4,64.7,29.86,North,8,3.0,3.0,85,0.00,,,0.00,Wunderground v.1.15,2013-09-14 12:46:00,
2013-09-14 07:52:00,69.4,65.0,29.86,North,358,3.0,3.0,86,0.00,,,0.00,Wunderground v.1.15,2013-09-14 12:52:00,
2013-09-14 07:58:00,69.3,64.6,29.87,North,356,3.0,4.0,85,0.00,,,0.00,Wunderground v.1.15,2013-09-14 12:58:00,
2013-09-14 08:04:00,69.3,64.6,29.87,North,359,3.0,3.0,85,0.00,,,0.00,Wunderground v.1.15,2013-09-14 13:04:00,
2013-09-14 08:10:00,69.5,64.8,29.87,North,359,3.0,3.0,85,0.00,,,0.00,Wunderground v.1.15,2013-09-14 13:10:00,
2013-09-14 08:16:00,69.9,64.8,29.87,North,360,3.0,3.0,84,0.00,,,0.00,Wunderground v.1.15,2013-09-14 13:16:00,
2013-09-14 08:22:00,70.4,65.3,29.88,North,359,3.0,3.0,84,0.00,,,0.00,Wunderground v.1.15,2013-09-14 13:22:00,
2013-09-14 19:39:00,84.5,65.5,29.83,SSE,148,4.0,4.0,53,0.00,,,0.00,Wunderground v.1.15,2013-09-15 00:39:00,
2013-09-14 19:46:00,84.2,65.8,29.83,SE,139,3.0,4.0,54,0.00,,,0.00,Wunderground v.1.15,2013-09-15 00:46:00,
2013-09-14 19:48:00,84.1,65.7,29.83,SE,131,3.0,3.0,54,0.00,,,0.00,Wunderground v.1.15,2013-09-15 00:48:00,
2013-09-14 19:54:00,83.7,65.8,29.83,SE,141,3.0,3.0,55,0.00,,,0.00,Wunderground v.1.15,2013-09-15 00:54:00,
2013-09-14 20:00:00,83.5,65.6,29.83,SE,145,3.0,3.0,55,0.00,,,0.00,Wunderground v.1.15,2013-09-15 01:00:00,
2013-09-14 20:06:00,83.2,65.9,29.84,ESE,117,2.0,3.0,56,0.00,,,0.00,Wunderground v.1.15,2013-09-15 01:06:00,
2013-09-14 20:12:00,82.8,65.5,29.84,ESE,115,1.0,2.0,56,0.00,,,0.00,Wunderground v.1.15,2013-09-15 01:12:00,
2013-09-14 20:18:00,82.4,65.6,29.84,SE,124,1.0,2.0,57,0.00,,,0.00,Wunderground v.1.15,2013-09-15 01:18:00,
2013-09-14 20:24:00,82.2,66.0,29.84,ESE,117,1.0,3.0,58,0.00,,,0.00,Wunderground v.1.15,2013-09-15 01:24:00,
2013-09-14 20:30:00,82.0,65.8,29.84,SE,139,2.0,3.0,58,0.00,,,0.00,Wunderground v.1.15,2013-09-15 01:30:00,
2013-09-14 20:36:00,81.9,65.7,29.84,SE,136,2.0,6.0,58,0.00,,,0.00,Wunderground v.1.15,2013-09-15 01:36:00,
2013-09-14 20:42:00,81.9,65.7,29.85,SE,131,2.0,6.0,58,0.00,,,0.00,Wunderground v.1.15,2013-09-15 01:42:00,
2013-09-14 20:48:00,81.8,65.6,29.85,SE,141,2.0,6.0,58,0.00,,,0.00,Wunderground v.1.15,2013-09-15 01:48:00,
2013-09-14 20:54:00,81.7,66.0,29.85,SE,145,2.0,6.0,59,0.00,,,0.00,Wunderground v.1.15,2013-09-15 01:54:00,
2013-09-14 21:00:00,81.7,66.0,29.85,SE,131,2.0,2.0,59,0.00,,,0.00,Wunderground v.1.15,2013-09-15 02:00:00,
2013-09-14 21:06:00,81.4,65.7,29.86,SE,125,3.0,6.0,59,0.00,,,0.00,Wunderground v.1.15,2013-09-15 02:06:00,
2013-09-14 21:12:00,81.5,66.3,29.86,SE,127,4.0,6.0,60,0.00,,,0.00,Wunderground v.1.15,2013-09-15 02:12:00,
2013-09-14 21:18:00,81.1,66.4,29.86,SE,128,4.0,6.0,61,0.00,,,0.00,Wunderground v.1.15,2013-09-15 02:18:00,
2013-09-14 21:24:00,80.8,66.6,29.87,ESE,111,3.0,6.0,62,0.00,,,0.00,Wunderground v.1.15,2013-09-15 02:24:00,
2013-09-14 21:30:00,80.6,66.8,29.87,SSE,162,4.0,6.0,63,0.00,,,0.00,Wunderground v.1.15,2013-09-15 02:30:00,
2013-09-14 21:36:00,80.5,67.6,29.88,SSE,160,8.0,11.0,65,0.00,,,0.00,Wunderground v.1.15,2013-09-15 02:36:00,
2013-09-14 21:42:00,80.1,68.2,29.88,SE,138,9.0,10.0,67,0.00,,,0.00,Wunderground v.1.15,2013-09-15 02:42:00,
2013-09-14 21:48:00,79.6,68.5,29.88,SE,143,8.0,10.0,69,0.00,,,0.00,Wunderground v.1.15,2013-09-15 02:48:00,
2013-09-14 21:54:00,79.0,68.8,29.89,SSE,155,7.0,7.0,71,0.00,,,0.00,Wunderground v.1.15,2013-09-15 02:54:00,
2013-09-14 22:00:00,78.4,68.6,29.89,SE,127,7.0,11.0,72,0.00,,,0.00,Wunderground v.1.15,2013-09-15 03:00:00,
2013-09-14 22:06:00,78.0,69.0,29.89,SE,143,8.0,11.0,74,0.00,,,0.00,Wunderground v.1.15,2013-09-15 03:06:00,
2013-09-14 22:12:00,77.5,68.9,29.89,SE,138,8.0,9.0,75,0.00,,,0.00,Wunderground v.1.15,2013-09-15 03:12:00,
2013-09-14 22:18:00,77.1,69.3,29.89,SE,138,8.0,9.0,77,0.00,,,0.00,Wunderground v.1.15,2013-09-15 03:18:00,
2013-09-14 22:24:00,76.8,69.4,29.89,SSE,164,8.0,10.0,78,0.00,,,0.00,Wunderground v.1.15,2013-09-15 03:24:00,
2013-09-14 22:30:00,76.6,69.2,29.90,South,183,7.0,7.0,78,0.00,,,0.00,Wunderground v.1.15,2013-09-15 03:30:00,
2013-09-14 22:36:00,76.4,69.4,29.90,SSE,148,6.0,8.0,79,0.00,,,0.00,Wunderground v.1.15,2013-09-15 03:36:00,
2013-09-14 22:42:00,76.2,69.2,29.90,South,170,6.0,8.0,79,0.00,,,0.00,Wunderground v.1.15,2013-09-15 03:42:00,
2013-09-14 22:48:00,76.0,69.4,29.90,South,169,6.0,9.0,80,0.00,,,0.00,Wunderground v.1.15,2013-09-15 03:48:00,
2013-09-14 22:54:00,75.9,69.3,29.90,SSE,163,6.0,10.0,80,0.00,,,0.00,Wunderground v.1.15,2013-09-15 03:54:00,
2013-09-14 23:00:00,75.7,69.5,29.90,SSE,153,6.0,8.0,81,0.00,,,0.00,Wunderground v.1.15,2013-09-15 04:00:00,
2013-09-14 23:02:00,75.7,69.5,29.90,SSE,159,6.0,8.0,81,0.00,,,0.00,Wunderground v.1.15,2013-09-15 04:02:00,
2013-09-14 23:04:00,75.6,69.4,29.90,SE,143,6.0,8.0,81,0.00,,,0.00,Wunderground v.1.15,2013-09-15 04:04:00,
2013-09-14 23:10:00,75.3,69.4,29.90,SSE,159,6.0,6.0,82,0.00,,,0.00,Wunderground v.1.15,2013-09-15 04:10:00,
2013-09-14 23:16:00,75.0,69.5,29.90,SE,137,6.0,8.0,83,0.00,,,0.00,Wunderground v.1.15,2013-09-15 04:16:00,
2013-09-14 23:22:00,74.8,69.6,29.90,SSE,159,6.0,7.0,84,0.00,,,0.00,Wunderground v.1.15,2013-09-15 04:22:00,
2013-09-14 23:28:00,74.7,69.5,29.90,SSE,160,5.0,7.0,84,0.00,,,0.00,Wunderground v.1.15,2013-09-15 04:28:00,
2013-09-14 23:34:00,74.6,69.8,29.90,SSE,158,5.0,6.0,85,0.00,,,0.00,Wunderground v.1.15,2013-09-15 04:34:00,
2013-09-14 23:40:00,74.5,69.7,29.90,SSE,150,5.0,6.0,85,0.00,,,0.00,Wunderground v.1.15,2013-09-15 04:40:00,
2013-09-14 23:46:00,74.5,69.7,29.90,SSE,162,6.0,8.0,85,0.00,,,0.00,Wunderground v.1.15,2013-09-15 04:46:00,
2013-09-14 23:50:00,74.5,69.7,29.90,South,172,6.0,7.0,85,0.00,,,0.00,Wunderground v.1.15,2013-09-15 04:50:00,
2013-09-14 23:56:00,74.4,69.6,29.90,SE,142,6.0,7.0,85,0.00,,,0.00,Wunderground v.1.15,2013-09-15 04:56:00,